Weather History for EGLL - January, 2012

Change the Weather History Date:

Sunday, January 1, 2012

  Actual Average Record
Temperature  
Mean Temperature 50 °F -  
Max Temperature 55 °F 45 °F 55 °F (2003)
Min Temperature 44 °F 35 °F 23 °F (2002)
Degree Days  
Heating Degree Days 15    
Moisture  
Dew Point 48 °F    
Average Humidity 86    
Maximum Humidity 94    
Minimum Humidity 71    
Precipitation  
Precipitation 0.28 in - - ()
Sea Level Pressure  
Sea Level Pressure 29.66 in    
Wind  
Wind Speed 12 mph ()    
Max Wind Speed 17 mph    
Max Gust Speed -    
Visibility 7.5 miles    
Events Rain    
Averages and records for this station are not official NWS values.
T = Trace of Precipitation, MM = Missing Value Source: Averaged Metar Reports

Daily Weather History Graph

Daily Weather History Graph

Search for Another Location

Airport or City:

Trip Planner

Search our weather history database for the weather conditions in past years. The results will help you decide how hot, cold, wet, or windy it might be!

Date:

Astronomy

Jan. 01, 2012 Rise Set
Actual Time 8:07 AM GMT 4:03 PM GMT
Civil Twilight 7:27 AM GMT 4:43 PM GMT
Nautical Twilight 6:44 AM GMT 5:25 PM GMT
Astronomical Twilight 6:03 AM GMT 6:06 PM GMT
Moon 11:12 AM GMT (1/1) 12:17 AM GMT (1/1)
Length of Visible Light 9h 15m
Length of Day
7h 55m
First Quarter, 52% of the Moon is Illuminated
Jan 1
First Quarter
Jan 9
Full
Jan 16
Last Quarter
Jan 23
New
Jan 31
First Quarter

Hourly Weather History & Observations

Time (GMT) Temp. Windchill Dew Point Humidity Pressure Visibility Wind Dir Wind Speed Gust Speed Precip Events Conditions
12:20 AM 53.6 °F - 50.0 °F 88% 29.77 in 6.2 mi SW 13.8 mph - N/A   Mostly Cloudy
12:50 AM 53.6 °F - 50.0 °F 88% 29.74 in 6.2 mi WSW 15.0 mph - N/A   Mostly Cloudy
1:20 AM 55.4 °F - 50.0 °F 82% 29.77 in 6.2 mi WSW 13.8 mph - N/A   Overcast
1:50 AM 53.6 °F - 51.8 °F 94% 29.77 in 5.0 mi SW 13.8 mph - N/A   Light Drizzle
2:20 AM 53.6 °F - 51.8 °F 94% 29.74 in 6.2 mi SW 13.8 mph - N/A   Scattered Clouds
2:50 AM 53 °F - 51 °F 92% 29.76 in 25 mi SW 13.8 mph - - Rain Drizzle
2:50 AM 53.6 °F - 51.8 °F 94% 29.74 in 6.2 mi SW 11.5 mph - N/A   Mostly Cloudy
3:20 AM 53.6 °F - 50.0 °F 88% 29.74 in 6.2 mi WSW 9.2 mph - N/A   Mostly Cloudy
3:50 AM 53.6 °F - 50.0 °F 88% 29.77 in 6.2 mi SW 10.4 mph - N/A   Scattered Clouds
4:20 AM 53.6 °F - 50.0 °F 88% 29.74 in 6.2 mi SW 11.5 mph - N/A   Mostly Cloudy
4:50 AM 53.6 °F - 50.0 °F 88% 29.74 in 6.2 mi SW 11.5 mph - N/A   Mostly Cloudy
5:20 AM 53.6 °F - 50.0 °F 88% 29.74 in 6.2 mi SW 11.5 mph - N/A   Scattered Clouds
5:50 AM 53 °F - 51 °F 88% 29.75 in 19 mi SSW 13.8 mph - -  
5:50 AM 53.6 °F - 50.0 °F 88% 29.74 in 6.2 mi SW 11.5 mph - N/A   Mostly Cloudy
6:20 AM 53.6 °F - 50.0 °F 88% 29.74 in 6.2 mi SW 12.7 mph - N/A   Scattered Clouds
6:50 AM 53.6 °F - 50.0 °F 88% 29.74 in 6.2 mi SW 10.4 mph - N/A   Scattered Clouds
7:20 AM 53.6 °F - 48.2 °F 82% 29.74 in 6.2 mi SW 13.8 mph - N/A   Partly Cloudy
7:50 AM 53.6 °F - 48.2 °F 82% 29.74 in 6.2 mi SW 12.7 mph - N/A   Scattered Clouds
8:20 AM 51.8 °F - 48.2 °F 88% 29.74 in 6.2 mi SW 11.5 mph - N/A   Scattered Clouds
8:50 AM 53 °F - 49 °F 82% 29.73 in 19 mi SSW 12.7 mph - -   Partly Cloudy
8:50 AM 51.8 °F - 48.2 °F 88% 29.74 in 6.2 mi SW 11.5 mph - N/A   Scattered Clouds
9:20 AM 53.6 °F - 48.2 °F 82% 29.71 in 6.2 mi SW 12.7 mph - N/A   Scattered Clouds
9:50 AM 53.6 °F - 48.2 °F 82% 29.71 in 6.2 mi SW 13.8 mph - N/A   Scattered Clouds
10:20 AM 55.4 °F - 48.2 °F 77% 29.71 in 6.2 mi SW 13.8 mph - N/A   Scattered Clouds
10:50 AM 55.4 °F - 48.2 °F 77% 29.71 in 6.2 mi SW 15.0 mph - N/A   Scattered Clouds
11:20 AM 55.4 °F - 48.2 °F 77% 29.68 in 6.2 mi SW 15.0 mph - N/A   Scattered Clouds
11:50 AM 55 °F - 48 °F 71% 29.69 in 16 mi SW 16.1 mph - -   Partly Cloudy
11:50 AM 55.4 °F - 48.2 °F 77% 29.68 in 6.2 mi SW 17.3 mph - N/A   Scattered Clouds
12:20 PM 53.6 °F - 48.2 °F 82% 29.68 in 6.2 mi SW 15.0 mph - N/A   Scattered Clouds
12:50 PM 53.6 °F - 48.2 °F 82% 29.65 in 6.2 mi SSW 10.4 mph - N/A   Partly Cloudy
1:20 PM 53.6 °F - 46.4 °F 77% 29.62 in - SW 13.8 mph - N/A   Clear
1:50 PM 53.6 °F - 48.2 °F 82% 29.59 in 6.2 mi SW 10.4 mph - N/A Rain Light Rain
2:20 PM 51.8 °F - 48.2 °F 88% 29.59 in 3.7 mi WSW 11.5 mph - N/A Rain Rain
2:50 PM 51.8 °F - 48.2 °F 88% 29.59 in 5.0 mi WSW 10.4 mph - N/A Rain Rain
3:20 PM 50.0 °F - 48.2 °F 94% 29.56 in 5.6 mi SSW 6.9 mph - N/A Rain Light Rain
3:50 PM 50.0 °F - 48.2 °F 94% 29.56 in 6.2 mi SW 9.2 mph - N/A Rain Light Rain
4:20 PM 50.0 °F - 48.2 °F 94% 29.56 in 6.2 mi SW 9.2 mph - N/A Rain Light Rain
4:50 PM 50.0 °F - 48.2 °F 94% 29.53 in 6.2 mi SW 9.2 mph - N/A Rain Light Rain
5:20 PM 50.0 °F - 48.2 °F 94% 29.53 in 6.2 mi SW 8.1 mph - N/A   Partly Cloudy
5:50 PM 51 °F - 48 °F 87% 29.56 in 19 mi SW 9.2 mph - - Rain Rain
5:50 PM 50.0 °F - 48.2 °F 94% 29.56 in 6.2 mi SW 8.1 mph - N/A   Scattered Clouds
6:20 PM 50.0 °F - 48.2 °F 94% 29.56 in 6.2 mi WSW 11.5 mph - N/A Rain Light Rain
6:50 PM 50.0 °F - 46.4 °F 87% 29.56 in 6.2 mi WSW 12.7 mph - N/A Rain Light Rain
7:20 PM 50.0 °F - 46.4 °F 87% 29.56 in 6.2 mi WSW 15.0 mph - N/A   Partly Cloudy
7:50 PM 50.0 °F - 46.4 °F 87% 29.56 in 6.2 mi WSW 13.8 mph - N/A   Partly Cloudy
8:20 PM 50.0 °F - 46.4 °F 87% 29.59 in 6.2 mi WSW 13.8 mph - N/A   Partly Cloudy
8:50 PM 49 °F - 45 °F 81% 29.60 in 19 mi WSW 15.0 mph - -   Partly Cloudy
8:50 PM 50.0 °F - 44.6 °F 82% 29.59 in 6.2 mi West 16.1 mph - N/A   Partly Cloudy
9:20 PM 48.2 °F - 44.6 °F 87% 29.59 in 6.2 mi WSW 16.1 mph - N/A   Partly Cloudy
9:50 PM 48.2 °F - 42.8 °F 82% 29.62 in 6.2 mi West 15.0 mph - N/A   Partly Cloudy
10:20 PM 48.2 °F - 42.8 °F 82% 29.62 in 6.2 mi WSW 16.1 mph - N/A   Partly Cloudy
10:50 PM 46.4 °F 40.4 °F 42.8 °F 87% 29.62 in - WSW 13.8 mph - N/A   Clear
11:20 PM 46.4 °F 41.1 °F 41.0 °F 81% 29.62 in - WSW 11.5 mph - N/A   Clear
11:50 PM 45 °F - 41 °F 82% 29.63 in 17 mi SW 11.5 mph - -  
11:50 PM 44.6 °F 38.8 °F 41.0 °F 87% 29.62 in - WSW 11.5 mph - N/A   Clear